BAW996G EGLL-EDDK

Flight info

Callsign BAW996G
Flight time 1h 16m
Altitude 37000
Route DET1J DET L6 DVR UL9 KONAN KOK UL607 SPI T857 DENOV T861 ERUKI T856 DEPOK
Aircraft A21N/M-SDE3FGHIRWY/LB1

Departure

Time 2026-04-21 10:01
Airport London Heathrow Airport (EGLL)

Arrival

Time 2026-04-21 11:17
Airport Cologne Bonn Airport (EDDK)
Time Latitude Longitude Altitude Speed Heading
2026-04-21 09:00 51.47232 -0.48574 91 ft 0 kts 270°
2026-04-21 09:46 51.47232 -0.48552 91 ft 2 kts 270°
2026-04-21 09:47 51.47232 -0.48531 91 ft 0 kts 270°
2026-04-21 09:47 51.47233 -0.48512 91 ft 2 kts 251°
2026-04-21 09:47 51.47241 -0.48492 91 ft 2 kts 226°
2026-04-21 09:47 51.47253 -0.48478 91 ft 2 kts 201°
2026-04-21 09:48 51.47264 -0.48473 91 ft 0 kts 182°
2026-04-21 09:48 51.47271 -0.48473 91 ft 0 kts 179°
2026-04-21 09:48 51.47272 -0.48473 91 ft 0 kts 179°
2026-04-21 09:50 51.47271 -0.48473 91 ft 0 kts 179°
2026-04-21 09:51 51.47261 -0.48473 91 ft 2 kts 180°
2026-04-21 09:51 51.47241 -0.48473 91 ft 3 kts 180°
2026-04-21 09:51 51.47211 -0.48473 91 ft 5 kts 180°
2026-04-21 09:51 51.47172 -0.48473 91 ft 6 kts 180°
2026-04-21 09:52 51.47126 -0.48473 91 ft 7 kts 180°
2026-04-21 09:52 51.47073 -0.48472 91 ft 8 kts 180°
2026-04-21 09:52 51.47013 -0.48471 91 ft 9 kts 179°
2026-04-21 09:52 51.46948 -0.48470 91 ft 9 kts 180°
2026-04-21 09:53 51.46875 -0.48470 91 ft 10 kts 180°
2026-04-21 09:53 51.46848 -0.48469 91 ft 0 kts 180°
2026-04-21 09:53 51.46843 -0.48469 91 ft 0 kts 180°
2026-04-21 09:53 51.46842 -0.48469 91 ft 0 kts 180°
2026-04-21 09:54 51.46829 -0.48469 91 ft 3 kts 180°
2026-04-21 09:54 51.46800 -0.48468 91 ft 5 kts 179°
2026-04-21 09:54 51.46754 -0.48468 91 ft 7 kts 180°
2026-04-21 09:54 51.46695 -0.48468 91 ft 8 kts 181°
2026-04-21 09:55 51.46633 -0.48468 91 ft 6 kts 180°
2026-04-21 09:55 51.46604 -0.48468 91 ft 0 kts 180°
2026-04-21 09:57 51.46600 -0.48468 91 ft 1 kts 180°
2026-04-21 09:57 51.46572 -0.48468 91 ft 5 kts 180°
2026-04-21 09:57 51.46527 -0.48467 91 ft 6 kts 180°
2026-04-21 09:58 51.46489 -0.48466 91 ft 3 kts 173°
2026-04-21 09:58 51.46479 -0.48439 91 ft 3 kts 93°
2026-04-21 09:58 51.46479 -0.48433 91 ft 0 kts 92°
2026-04-21 10:00 51.46479 -0.48431 91 ft 0 kts 92°
2026-04-21 10:00 51.46478 -0.48334 91 ft 36 kts 90°
2026-04-21 10:00 51.46481 -0.47490 91 ft 112 kts 89°
2026-04-21 10:00 51.46484 -0.45901 112 ft 169 kts 87°
2026-04-21 10:01 51.46503 -0.44001 813 ft 170 kts 87°
2026-04-21 10:01 51.46504 -0.42172 1711 ft 167 kts 89°
2026-04-21 10:01 51.46228 -0.40371 2431 ft 179 kts 112°
2026-04-21 10:01 51.45436 -0.38715 2931 ft 197 kts 121°
2026-04-21 10:02 51.44390 -0.34488 4042 ft 222 kts 108°
2026-04-21 10:02 51.43781 -0.32102 4600 ft 240 kts 109°
2026-04-21 10:02 51.43137 -0.29602 5413 ft 247 kts 109°
2026-04-21 10:03 51.42547 -0.27049 6279 ft 250 kts 107°
2026-04-21 10:03 51.42027 -0.24383 7171 ft 252 kts 99°
2026-04-21 10:03 51.41723 -0.21646 8004 ft 255 kts 98°
2026-04-21 10:03 51.41405 -0.18833 8806 ft 260 kts 99°
2026-04-21 10:04 51.41054 -0.15982 9605 ft 265 kts 99°
2026-04-21 10:04 51.40674 -0.13080 10377 ft 270 kts 100°
2026-04-21 10:04 51.40272 -0.10106 10987 ft 281 kts 100°
2026-04-21 10:04 51.39847 -0.06984 11397 ft 298 kts 100°
2026-04-21 10:05 51.39389 -0.03655 11763 ft 316 kts 101°
2026-04-21 10:05 51.38897 -0.00119 12225 ft 330 kts 101°
2026-04-21 10:05 51.38393 0.03483 12928 ft 336 kts 101°
2026-04-21 10:05 51.37885 0.07113 13685 ft 339 kts 101°
2026-04-21 10:06 51.37369 0.10788 14392 ft 343 kts 101°
2026-04-21 10:06 51.36839 0.14552 15073 ft 348 kts 101°
2026-04-21 10:06 51.36307 0.18330 15743 ft 352 kts 100°
2026-04-21 10:06 51.35766 0.22161 16397 ft 356 kts 100°
2026-04-21 10:07 51.35221 0.26016 16953 ft 363 kts 100°
2026-04-21 10:07 51.34659 0.29998 17566 ft 368 kts 100°
2026-04-21 10:07 51.34097 0.33961 18227 ft 370 kts 100°
2026-04-21 10:07 51.33520 0.38008 18820 ft 375 kts 99°
2026-04-21 10:08 51.32941 0.42057 19341 ft 381 kts 100°
2026-04-21 10:08 51.32344 0.46216 19853 ft 386 kts 99°
2026-04-21 10:08 51.31746 0.50388 20371 ft 391 kts 99°
2026-04-21 10:08 51.31134 0.54626 20876 ft 397 kts 99°
2026-04-21 10:09 51.30499 0.58979 21329 ft 404 kts 101°
2026-04-21 10:09 51.29749 0.63328 21814 ft 409 kts 102°
2026-04-21 10:09 51.28950 0.67717 22295 ft 414 kts 103°
2026-04-21 10:09 51.28120 0.72237 22780 ft 418 kts 103°
2026-04-21 10:10 51.27279 0.76802 23241 ft 423 kts 103°
2026-04-21 10:10 51.26450 0.81307 23684 ft 427 kts 103°
2026-04-21 10:10 51.25608 0.85869 24127 ft 432 kts 103°
2026-04-21 10:10 51.24754 0.90502 24529 ft 436 kts 103°
2026-04-21 10:11 51.23891 0.95162 24984 ft 439 kts 103°
2026-04-21 10:11 51.23031 0.99801 25451 ft 441 kts 103°
2026-04-21 10:11 51.22150 1.04538 25843 ft 445 kts 103°
2026-04-21 10:11 51.21276 1.09230 26195 ft 449 kts 103°
2026-04-21 10:12 51.20384 1.14008 26521 ft 454 kts 103°
2026-04-21 10:12 51.19455 1.18960 26936 ft 456 kts 103°
2026-04-21 10:12 51.18543 1.23812 27279 ft 460 kts 103°
2026-04-21 10:12 51.17619 1.28713 27592 ft 464 kts 103°
2026-04-21 10:13 51.16789 1.33659 27896 ft 466 kts 99°
2026-04-21 10:13 51.16184 1.38764 28243 ft 466 kts 94°
2026-04-21 10:13 51.15831 1.43858 28609 ft 465 kts 90°
2026-04-21 10:13 51.15582 1.48956 28879 ft 469 kts 89°
2026-04-21 10:14 51.15352 1.54133 29149 ft 472 kts 89°
2026-04-21 10:14 51.15114 1.59396 29453 ft 475 kts 89°
2026-04-21 10:14 51.14868 1.64581 29726 ft 478 kts 89°
2026-04-21 10:14 51.14607 1.69961 29993 ft 481 kts 90°
2026-04-21 10:15 51.14337 1.75416 30229 ft 484 kts 90°
2026-04-21 10:15 51.14090 1.80381 30530 ft 485 kts 90°
2026-04-21 10:15 51.13809 1.85859 30874 ft 485 kts 90°
2026-04-21 10:15 51.13544 1.91030 31181 ft 485 kts 90°
2026-04-21 10:16 51.13264 1.96394 31552 ft 484 kts 90°
2026-04-21 10:16 51.12988 2.01677 31934 ft 482 kts 90°
2026-04-21 10:16 51.12706 2.07012 32339 ft 480 kts 90°
2026-04-21 10:16 51.12428 2.12237 32728 ft 477 kts 91°
2026-04-21 10:17 51.12145 2.17470 33124 ft 474 kts 91°
2026-04-21 10:17 51.11863 2.22680 33472 ft 472 kts 91°
2026-04-21 10:17 51.11578 2.27897 33749 ft 471 kts 91°
2026-04-21 10:17 51.11292 2.33097 33960 ft 471 kts 91°
2026-04-21 10:18 51.11006 2.38241 34157 ft 472 kts 91°
2026-04-21 10:18 51.10717 2.43428 34345 ft 472 kts 91°
2026-04-21 10:18 51.10422 2.48643 34558 ft 472 kts 91°
2026-04-21 10:18 51.10128 2.53780 34757 ft 473 kts 91°
2026-04-21 10:19 51.09814 2.59012 34923 ft 474 kts 92°
2026-04-21 10:19 51.09334 2.64298 35099 ft 476 kts 96°
2026-04-21 10:19 51.08663 2.69449 35251 ft 478 kts 101°
2026-04-21 10:20 51.06824 2.79917 35275 ft 478 kts 104°
2026-04-21 10:20 51.04934 2.90180 35272 ft 478 kts 104°
2026-04-21 10:21 51.03307 2.99047 35271 ft 477 kts 104°
2026-04-21 10:21 51.01403 3.09404 35260 ft 477 kts 103°
2026-04-21 10:22 50.99528 3.19554 35259 ft 478 kts 103°
2026-04-21 10:22 50.97647 3.29688 35261 ft 479 kts 103°
2026-04-21 10:23 50.95768 3.39755 35253 ft 480 kts 103°
2026-04-21 10:23 50.93861 3.49923 35253 ft 479 kts 103°
2026-04-21 10:24 50.91967 3.59959 35251 ft 478 kts 104°
2026-04-21 10:24 50.90046 3.70028 35253 ft 479 kts 104°
2026-04-21 10:25 50.88064 3.80278 35248 ft 478 kts 104°
2026-04-21 10:25 50.86124 3.90270 35250 ft 478 kts 104°
2026-04-21 10:26 50.84133 4.00483 35248 ft 477 kts 105°
2026-04-21 10:26 50.82250 4.10093 35249 ft 477 kts 104°
2026-04-21 10:27 50.80251 4.20242 35245 ft 478 kts 104°
2026-04-21 10:27 50.78375 4.29719 35239 ft 477 kts 104°
2026-04-21 10:28 50.76347 4.39924 35247 ft 477 kts 105°
2026-04-21 10:28 50.74403 4.49651 35239 ft 475 kts 105°
2026-04-21 10:29 50.72405 4.59587 35245 ft 476 kts 104°
2026-04-21 10:29 50.71416 4.64599 35126 ft 478 kts 104°
2026-04-21 10:29 50.70443 4.69637 34450 ft 481 kts 104°
2026-04-21 10:29 50.69458 4.74752 33859 ft 482 kts 104°
2026-04-21 10:30 50.68534 4.79535 33363 ft 481 kts 104°
2026-04-21 10:30 50.67563 4.84521 32834 ft 481 kts 104°
2026-04-21 10:30 50.66653 4.89178 32283 ft 481 kts 104°
2026-04-21 10:30 50.65665 4.94167 31630 ft 483 kts 105°
2026-04-21 10:31 50.64629 4.99240 30914 ft 483 kts 105°
2026-04-21 10:31 50.63619 5.04123 30193 ft 482 kts 105°
2026-04-21 10:31 50.62566 5.09215 29533 ft 478 kts 105°
2026-04-21 10:31 50.61546 5.14144 29031 ft 471 kts 105°
2026-04-21 10:32 50.60544 5.18974 28557 ft 465 kts 105°
2026-04-21 10:32 50.59541 5.23812 28044 ft 459 kts 105°
2026-04-21 10:32 50.58559 5.28537 27540 ft 454 kts 105°
2026-04-21 10:32 50.57590 5.33196 27037 ft 448 kts 105°
2026-04-21 10:33 50.56628 5.37810 26533 ft 443 kts 105°
2026-04-21 10:33 50.55666 5.42410 26029 ft 438 kts 105°
2026-04-21 10:33 50.54715 5.46955 25524 ft 433 kts 105°
2026-04-21 10:33 50.53776 5.51422 25020 ft 428 kts 105°
2026-04-21 10:34 50.52847 5.55829 24534 ft 423 kts 105°
2026-04-21 10:34 50.52140 5.60232 24005 ft 416 kts 95°
2026-04-21 10:34 50.52145 5.64686 23515 ft 408 kts 81°
2026-04-21 10:34 50.52807 5.68966 23024 ft 401 kts 71°
2026-04-21 10:35 50.53713 5.73247 22520 ft 397 kts 70°
2026-04-21 10:35 50.54624 5.77456 22023 ft 393 kts 70°
2026-04-21 10:35 50.55445 5.81283 21569 ft 389 kts 70°
2026-04-21 10:35 50.56325 5.85421 21075 ft 386 kts 70°
2026-04-21 10:36 50.57203 5.89576 20584 ft 382 kts 70°
2026-04-21 10:36 50.57747 5.92162 20261 ft 380 kts 70°
2026-04-21 10:36 50.58576 5.96120 19781 ft 377 kts 71°
2026-04-21 10:36 50.59403 6.00083 19300 ft 374 kts 71°
2026-04-21 10:37 50.60236 6.04085 18807 ft 371 kts 71°
2026-04-21 10:37 50.60887 6.07223 18425 ft 368 kts 71°
2026-04-21 10:37 50.61635 6.10838 17990 ft 365 kts 71°
2026-04-21 10:37 50.62426 6.14662 17523 ft 362 kts 71°
2026-04-21 10:38 50.63130 6.18463 17052 ft 360 kts 76°
2026-04-21 10:38 50.63462 6.22344 16594 ft 358 kts 85°
2026-04-21 10:38 50.63421 6.26247 16136 ft 357 kts 91°
2026-04-21 10:38 50.63237 6.30133 15672 ft 354 kts 92°
2026-04-21 10:39 50.63037 6.33974 15218 ft 351 kts 93°
2026-04-21 10:39 50.62835 6.37792 14756 ft 349 kts 93°
2026-04-21 10:39 50.62633 6.41578 14295 ft 346 kts 93°
2026-04-21 10:39 50.62437 6.45304 13851 ft 343 kts 93°
2026-04-21 10:40 50.62241 6.49012 13402 ft 340 kts 93°
2026-04-21 10:40 50.62046 6.52713 12950 ft 337 kts 93°
2026-04-21 10:40 50.61853 6.56358 12504 ft 334 kts 92°
2026-04-21 10:40 50.61659 6.60022 12050 ft 332 kts 93°
2026-04-21 10:41 50.61465 6.63621 11604 ft 329 kts 93°
2026-04-21 10:41 50.61281 6.67040 11181 ft 327 kts 94°
2026-04-21 10:41 50.61090 6.70658 10724 ft 324 kts 92°
2026-04-21 10:41 50.61279 6.73875 10311 ft 319 kts 73°
2026-04-21 10:42 50.62371 6.77026 10191 ft 310 kts 51°
2026-04-21 10:42 50.63669 6.78929 10208 ft 313 kts 41°
2026-04-21 10:42 50.65377 6.81101 10196 ft 306 kts 41°
2026-04-21 10:42 50.67014 6.83167 10191 ft 289 kts 41°
2026-04-21 10:43 50.68573 6.85143 10168 ft 273 kts 41°
2026-04-21 10:43 50.69690 6.86568 9949 ft 270 kts 41°
2026-04-21 10:43 50.71128 6.88413 9565 ft 269 kts 41°
2026-04-21 10:43 50.72583 6.90293 9176 ft 267 kts 43°
2026-04-21 10:44 50.73926 6.92262 8790 ft 265 kts 47°
2026-04-21 10:44 50.75180 6.94360 8406 ft 263 kts 49°
2026-04-21 10:44 50.76436 6.96510 8013 ft 261 kts 49°
2026-04-21 10:44 50.77667 6.98604 7630 ft 260 kts 46°
2026-04-21 10:45 50.79171 7.00134 7224 ft 264 kts 20°
2026-04-21 10:45 50.81014 7.00372 6836 ft 269 kts 354°
2026-04-21 10:45 50.82764 6.99243 6449 ft 276 kts 327°
2026-04-21 10:45 50.84211 6.97217 6079 ft 277 kts 320°
2026-04-21 10:46 50.85602 6.95129 5702 ft 276 kts 320°
2026-04-21 10:46 50.87007 6.93033 5322 ft 275 kts 320°
2026-04-21 10:46 50.88397 6.90980 4947 ft 274 kts 320°
2026-04-21 10:46 50.89772 6.88960 4759 ft 265 kts 321°
2026-04-21 10:47 50.91101 6.87011 4579 ft 256 kts 321°
2026-04-21 10:47 50.92383 6.85133 4399 ft 248 kts 321°
2026-04-21 10:47 50.93630 6.83307 4203 ft 241 kts 321°
2026-04-21 10:47 50.94847 6.81525 3979 ft 236 kts 321°
2026-04-21 10:48 50.96054 6.79759 3763 ft 231 kts 321°
2026-04-21 10:48 50.97237 6.78032 3693 ft 234 kts 321°
2026-04-21 10:48 50.98512 6.76441 3665 ft 233 kts 339°
2026-04-21 10:48 51.00053 6.76055 3632 ft 224 kts 14°
2026-04-21 10:49 51.01422 6.77092 3545 ft 214 kts 43°
2026-04-21 10:49 51.02269 6.78914 3446 ft 206 kts 69°
2026-04-21 10:49 51.02566 6.81099 3340 ft 201 kts 81°
2026-04-21 10:49 51.02744 6.83272 3225 ft 196 kts 81°
2026-04-21 10:50 51.02913 6.85391 3157 ft 192 kts 81°
2026-04-21 10:50 51.03080 6.87482 3056 ft 189 kts 81°
2026-04-21 10:50 51.03191 6.89569 2952 ft 189 kts 96°
2026-04-21 10:50 51.02639 6.91445 2985 ft 189 kts 126°
2026-04-21 10:51 51.01777 6.92895 3013 ft 178 kts 130°
2026-04-21 10:51 51.00905 6.94266 2954 ft 176 kts 131°
2026-04-21 10:51 51.00018 6.95595 2949 ft 175 kts 133°
2026-04-21 10:51 50.99113 6.96924 2962 ft 177 kts 133°
2026-04-21 10:52 50.98205 6.98237 2909 ft 178 kts 133°
2026-04-21 10:52 50.97284 6.99558 2743 ft 178 kts 133°
2026-04-21 10:52 50.96378 7.00849 2511 ft 174 kts 134°
2026-04-21 10:52 50.95494 7.02104 2232 ft 168 kts 133°
2026-04-21 10:53 50.94666 7.03302 2022 ft 157 kts 132°
2026-04-21 10:53 50.93882 7.04443 1770 ft 149 kts 132°
2026-04-21 10:53 50.93150 7.05529 1612 ft 141 kts 132°
2026-04-21 10:53 50.92417 7.06576 1424 ft 143 kts 133°
2026-04-21 10:54 50.91669 7.07663 1243 ft 150 kts 134°
2026-04-21 10:54 50.90905 7.08756 1073 ft 147 kts 134°
2026-04-21 10:54 50.90164 7.09838 842 ft 146 kts 134°
2026-04-21 10:54 50.89409 7.10939 659 ft 145 kts 135°
2026-04-21 10:55 50.88668 7.12002 448 ft 142 kts 135°
2026-04-21 10:55 50.87952 7.13056 272 ft 143 kts 137°
2026-04-21 10:55 50.87244 7.14066 310 ft 141 kts 135°
2026-04-21 10:55 50.86482 7.15164 779 ft 156 kts 135°
2026-04-21 10:56 50.85662 7.16342 1499 ft 165 kts 134°
2026-04-21 10:56 50.84819 7.17548 2336 ft 163 kts 133°
2026-04-21 10:56 50.83938 7.18736 2894 ft 175 kts 133°
2026-04-21 10:56 50.83302 7.20393 3345 ft 186 kts 97°
2026-04-21 10:57 50.83495 7.22441 3795 ft 201 kts 63°
2026-04-21 10:57 50.84398 7.24253 3979 ft 219 kts 46°
2026-04-21 10:57 50.85502 7.25927 3976 ft 220 kts 44°
2026-04-21 10:57 50.86638 7.27564 3975 ft 221 kts 43°
2026-04-21 10:58 50.87785 7.29200 3973 ft 221 kts 43°
2026-04-21 10:58 50.88921 7.30805 3972 ft 221 kts 41°
2026-04-21 10:58 50.90276 7.31963 3957 ft 225 kts 13°
2026-04-21 10:58 50.91853 7.31780 3965 ft 237 kts 341°
2026-04-21 10:59 50.93351 7.30355 3986 ft 261 kts 326°
2026-04-21 10:59 50.94770 7.28582 3982 ft 264 kts 323°
2026-04-21 10:59 50.96187 7.26727 3979 ft 264 kts 323°
2026-04-21 10:59 50.97619 7.24833 3976 ft 264 kts 323°
2026-04-21 11:00 50.99028 7.22971 3978 ft 264 kts 323°
2026-04-21 11:00 51.00440 7.21111 3978 ft 263 kts 323°
2026-04-21 11:00 51.01838 7.19269 3976 ft 264 kts 323°
2026-04-21 11:00 51.03260 7.17394 3975 ft 264 kts 323°
2026-04-21 11:01 51.04660 7.15542 3971 ft 264 kts 323°
2026-04-21 11:01 51.06079 7.13664 3969 ft 264 kts 323°
2026-04-21 11:01 51.07471 7.11824 3964 ft 264 kts 323°
2026-04-21 11:02 51.10300 7.08077 3965 ft 264 kts 323°
2026-04-21 11:02 51.11694 7.06171 3959 ft 265 kts 317°
2026-04-21 11:02 51.12650 7.03674 3955 ft 271 kts 288°
2026-04-21 11:02 51.12775 7.00764 3965 ft 275 kts 260°
2026-04-21 11:03 51.12027 6.97990 3969 ft 275 kts 231°
2026-04-21 11:03 51.10515 6.96041 3979 ft 273 kts 201°
2026-04-21 11:03 51.08656 6.95479 3983 ft 266 kts 172°
2026-04-21 11:03 51.07491 6.95898 3976 ft 261 kts 154°
2026-04-21 11:04 51.06021 6.97534 3980 ft 256 kts 133°
2026-04-21 11:04 51.04808 6.99557 3977 ft 255 kts 129°
2026-04-21 11:04 51.03627 7.01654 3976 ft 254 kts 128°
2026-04-21 11:04 51.02437 7.03794 3973 ft 254 kts 128°
2026-04-21 11:05 51.01267 7.05901 3972 ft 254 kts 128°
2026-04-21 11:05 51.00106 7.07991 3974 ft 255 kts 128°
2026-04-21 11:05 50.98932 7.10100 3972 ft 255 kts 128°
2026-04-21 11:05 50.97755 7.12213 3973 ft 256 kts 128°
2026-04-21 11:06 50.96573 7.14331 3971 ft 256 kts 128°
2026-04-21 11:06 50.95398 7.16439 3967 ft 255 kts 128°
2026-04-21 11:06 50.94230 7.18533 3967 ft 255 kts 128°
2026-04-21 11:06 50.93040 7.20668 3969 ft 255 kts 128°
2026-04-21 11:07 50.91870 7.22767 3971 ft 256 kts 128°
2026-04-21 11:07 50.90684 7.24888 3973 ft 256 kts 128°
2026-04-21 11:07 50.89519 7.26960 3961 ft 246 kts 128°
2026-04-21 11:07 50.88394 7.28942 3954 ft 229 kts 128°
2026-04-21 11:08 50.87308 7.30848 3961 ft 224 kts 128°
2026-04-21 11:08 50.86359 7.32513 3964 ft 224 kts 128°
2026-04-21 11:08 50.85299 7.34375 3947 ft 225 kts 128°
2026-04-21 11:08 50.84291 7.36146 3706 ft 224 kts 128°
2026-04-21 11:09 50.83282 7.37911 3460 ft 222 kts 128°
2026-04-21 11:09 50.82247 7.39718 3208 ft 221 kts 128°
2026-04-21 11:09 50.81217 7.41517 2990 ft 220 kts 128°
2026-04-21 11:09 50.80193 7.43307 2959 ft 221 kts 128°
2026-04-21 11:10 50.79171 7.45081 2938 ft 210 kts 130°
2026-04-21 11:10 50.77990 7.46305 2905 ft 202 kts 162°
2026-04-21 11:10 50.76644 7.46160 2987 ft 199 kts 199°
2026-04-21 11:10 50.75527 7.44899 2982 ft 201 kts 220°
2026-04-21 11:11 50.74517 7.43377 2962 ft 201 kts 223°
2026-04-21 11:11 50.73517 7.41826 2957 ft 201 kts 225°
2026-04-21 11:11 50.72812 7.39945 2960 ft 201 kts 256°
2026-04-21 11:11 50.72783 7.37782 2974 ft 199 kts 279°
2026-04-21 11:12 50.73012 7.35633 3001 ft 197 kts 289°
2026-04-21 11:12 50.73666 7.33799 2975 ft 190 kts 316°
2026-04-21 11:12 50.74609 7.32352 3005 ft 189 kts 322°
2026-04-21 11:12 50.75607 7.30993 3007 ft 184 kts 322°
2026-04-21 11:13 50.76527 7.29652 2771 ft 177 kts 321°
2026-04-21 11:13 50.77395 7.28343 2505 ft 168 kts 321°
2026-04-21 11:13 50.78216 7.27143 2252 ft 153 kts 323°
2026-04-21 11:13 50.78979 7.26038 2012 ft 144 kts 323°
2026-04-21 11:14 50.79740 7.24962 1798 ft 154 kts 323°
2026-04-21 11:14 50.80542 7.23792 1634 ft 155 kts 321°
2026-04-21 11:14 50.81300 7.22665 1503 ft 149 kts 322°
2026-04-21 11:14 50.82065 7.21551 1297 ft 151 kts 321°
2026-04-21 11:15 50.82849 7.20420 1059 ft 151 kts 321°
2026-04-21 11:15 50.83596 7.19341 924 ft 145 kts 321°
2026-04-21 11:15 50.84345 7.18253 693 ft 144 kts 321°
2026-04-21 11:15 50.85084 7.17184 472 ft 143 kts 320°
2026-04-21 11:16 50.85802 7.16154 310 ft 134 kts 320°
2026-04-21 11:16 50.86432 7.15250 282 ft 104 kts 318°
2026-04-21 11:16 50.86893 7.14584 265 ft 79 kts 317°
2026-04-21 11:16 50.87191 7.14153 254 ft 50 kts 317°
2026-04-21 11:17 50.87438 7.13795 248 ft 46 kts 317°
2026-04-21 11:17 50.87665 7.13466 246 ft 42 kts 317°
2026-04-21 11:17 50.87841 7.13211 245 ft 20 kts 317°
2026-04-21 11:17 50.87944 7.13065 245 ft 19 kts 318°
2026-04-21 11:18 50.88009 7.12889 244 ft 19 kts 274°
2026-04-21 11:18 50.87996 7.12755 244 ft 10 kts 247°
2026-04-21 11:18 50.87983 7.12720 243 ft 3 kts 235°
2026-04-21 11:18 50.87968 7.12679 243 ft 4 kts 256°
2026-04-21 11:19 50.87985 7.12619 242 ft 7 kts 301°
2026-04-21 11:19 50.88015 7.12541 241 ft 9 kts 301°
2026-04-21 11:19 50.88052 7.12434 239 ft 12 kts 298°
2026-04-21 11:19 50.88103 7.12317 237 ft 8 kts 306°
2026-04-21 11:20 50.88144 7.12227 234 ft 11 kts 306°
2026-04-21 11:20 50.88198 7.12111 232 ft 8 kts 306°
2026-04-21 11:20 50.88208 7.12086 231 ft 1 kts 284°
2026-04-21 11:20 50.88197 7.12056 231 ft 4 kts 224°
2026-04-21 11:21 50.88171 7.12024 230 ft 3 kts 216°
2026-04-21 11:21 50.88156 7.12006 230 ft 1 kts 216°
2026-04-21 11:21 50.88152 7.12002 229 ft 0 kts 216°